Time,TemperatureF,DewpointF,PressureIn,WindDirection,WindDirectionDegrees,WindSpeedMPH,WindSpeedGustMPH,Humidity,HourlyPrecipIn,Conditions,Clouds,dailyrainin,SoftwareType,DateUTC
2013-03-27 00:07:00,38.1,25.9,30.36,SE,142,0.0,2.0,61,0.00,,,0.00,meteohub,2013-03-27 05:07:00,
2013-03-27 00:17:00,38.1,25.9,30.36,SE,142,0.0,0.0,61,0.00,,,0.00,meteohub,2013-03-27 05:17:00,
2013-03-27 00:22:00,38.1,25.5,30.37,SE,142,0.0,0.0,60,0.00,,,0.00,meteohub,2013-03-27 05:22:00,
2013-03-27 00:32:00,38.3,24.8,30.36,SE,142,0.0,0.0,58,0.00,,,0.00,meteohub,2013-03-27 05:32:00,
2013-03-27 00:37:00,38.5,25.3,30.36,SE,142,0.0,0.0,59,0.00,,,0.00,meteohub,2013-03-27 05:37:00,
2013-03-27 00:42:00,38.3,25.2,30.36,SE,142,0.0,0.0,59,0.00,,,0.00,meteohub,2013-03-27 05:42:00,
2013-03-27 00:52:00,38.1,26.6,30.36,SE,142,0.0,0.0,63,0.00,,,0.00,meteohub,2013-03-27 05:52:00,
2013-03-27 00:57:00,37.9,25.3,30.36,SE,142,0.0,1.0,60,0.00,,,0.00,meteohub,2013-03-27 05:57:00,
2013-03-27 01:02:00,37.8,25.9,30.36,SE,142,1.0,1.0,62,0.00,,,0.00,meteohub,2013-03-27 06:02:00,
2013-03-27 01:07:00,37.8,25.9,30.36,SE,142,0.0,2.0,62,0.00,,,0.00,meteohub,2013-03-27 06:07:00,
2013-03-27 01:17:00,37.8,26.2,30.36,SE,142,0.0,2.0,63,0.00,,,0.00,meteohub,2013-03-27 06:17:00,
2013-03-27 01:22:00,37.6,26.1,30.36,SE,142,0.0,1.0,63,0.00,,,0.00,meteohub,2013-03-27 06:22:00,
2013-03-27 01:27:00,37.4,25.5,30.36,SE,142,0.0,0.0,62,0.00,,,0.00,meteohub,2013-03-27 06:27:00,
2013-03-27 01:32:00,37.4,25.2,30.35,SE,142,0.0,1.0,61,0.00,,,0.00,meteohub,2013-03-27 06:32:00,
2013-03-27 01:37:00,37.4,25.5,30.35,SE,142,1.0,2.0,62,0.00,,,0.00,meteohub,2013-03-27 06:37:00,
2013-03-27 01:42:00,37.4,25.9,30.35,SE,142,0.0,2.0,63,0.00,,,0.00,meteohub,2013-03-27 06:42:00,
2013-03-27 01:47:00,37.2,25.3,30.35,SE,142,0.0,2.0,62,0.00,,,0.00,meteohub,2013-03-27 06:47:00,
2013-03-27 01:52:00,37.2,25.7,30.35,SE,142,0.0,2.0,63,0.00,,,0.00,meteohub,2013-03-27 06:52:00,
2013-03-27 01:57:00,37.2,25.7,30.35,SE,142,1.0,2.0,63,0.00,,,0.00,meteohub,2013-03-27 06:57:00,
2013-03-27 02:02:00,37.0,25.7,30.34,SE,142,0.0,2.0,63,0.00,,,0.00,meteohub,2013-03-27 07:02:00,
2013-03-27 02:12:00,37.0,26.1,30.35,SSE,150,1.0,2.0,64,0.00,,,0.00,meteohub,2013-03-27 07:12:00,
2013-03-27 02:17:00,36.9,26.2,30.35,SSE,150,0.0,2.0,65,0.00,,,0.00,meteohub,2013-03-27 07:17:00,
2013-03-27 02:22:00,36.9,26.6,30.34,SSE,150,0.0,2.0,66,0.00,,,0.00,meteohub,2013-03-27 07:22:00,
2013-03-27 02:32:00,36.7,25.7,30.33,SSE,150,0.0,2.0,64,0.00,,,0.00,meteohub,2013-03-27 07:32:00,
2013-03-27 02:37:00,36.5,25.5,30.33,SE,136,1.0,2.0,64,0.00,,,0.00,meteohub,2013-03-27 07:37:00,
2013-03-27 02:42:00,36.7,25.7,30.33,SE,134,0.0,3.0,64,0.00,,,0.00,meteohub,2013-03-27 07:42:00,
2013-03-27 02:47:00,36.7,25.3,30.33,SE,125,1.0,3.0,63,0.00,,,0.00,meteohub,2013-03-27 07:47:00,
2013-03-27 02:52:00,36.9,25.5,30.33,SE,139,3.0,3.0,63,0.00,,,0.00,meteohub,2013-03-27 07:52:00,
2013-03-27 02:57:00,37.0,25.7,30.33,SE,138,0.0,4.0,63,0.00,,,0.00,meteohub,2013-03-27 07:57:00,
2013-03-27 03:07:00,37.0,25.2,30.33,SSE,156,0.0,4.0,62,0.00,,,0.00,meteohub,2013-03-27 08:07:00,
2013-03-27 03:12:00,36.9,25.9,30.33,South,176,1.0,2.0,64,0.00,,,0.00,meteohub,2013-03-27 08:12:00,
2013-03-27 03:22:00,36.7,25.7,30.32,SSE,156,1.0,3.0,64,0.00,,,0.00,meteohub,2013-03-27 08:22:00,
2013-03-27 03:32:00,36.3,25.7,30.32,SSE,156,1.0,2.0,65,0.00,,,0.00,meteohub,2013-03-27 08:32:00,
2013-03-27 03:37:00,36.1,25.5,30.32,SSE,151,1.0,2.0,65,0.00,,,0.00,meteohub,2013-03-27 08:37:00,
2013-03-27 03:42:00,36.1,25.5,30.31,SSE,148,3.0,3.0,65,0.00,,,0.00,meteohub,2013-03-27 08:42:00,
2013-03-27 03:52:00,36.1,25.2,30.31,ESE,113,1.0,4.0,64,0.00,,,0.00,meteohub,2013-03-27 08:52:00,
2013-03-27 03:57:00,36.3,25.0,30.31,SSE,148,0.0,6.0,63,0.00,,,0.00,meteohub,2013-03-27 08:57:00,
2013-03-27 04:02:00,36.7,25.3,30.31,SE,138,0.0,6.0,63,0.00,,,0.00,meteohub,2013-03-27 09:02:00,
2013-03-27 04:07:00,36.5,25.2,30.30,SSE,152,0.0,6.0,63,0.00,,,0.00,meteohub,2013-03-27 09:07:00,
2013-03-27 04:12:00,36.5,25.5,30.30,SE,146,0.0,3.0,64,0.00,,,0.00,meteohub,2013-03-27 09:12:00,
2013-03-27 04:17:00,36.3,25.3,30.30,SE,146,1.0,3.0,64,0.00,,,0.00,meteohub,2013-03-27 09:17:00,
2013-03-27 04:22:00,36.1,25.5,30.30,SE,146,1.0,3.0,65,0.00,,,0.00,meteohub,2013-03-27 09:22:00,
2013-03-27 04:27:00,36.0,25.7,30.30,SSE,147,0.0,2.0,66,0.00,,,0.00,meteohub,2013-03-27 09:27:00,
2013-03-27 04:32:00,36.0,25.7,30.31,South,174,1.0,3.0,66,0.00,,,0.00,meteohub,2013-03-27 09:32:00,
2013-03-27 04:42:00,35.8,25.9,30.31,South,174,2.0,3.0,67,0.00,,,0.00,meteohub,2013-03-27 09:42:00,
2013-03-27 04:47:00,36.0,26.1,30.31,SSE,165,1.0,3.0,67,0.00,,,0.00,meteohub,2013-03-27 09:47:00,
2013-03-27 04:52:00,36.0,25.7,30.31,SSE,168,1.0,2.0,66,0.00,,,0.00,meteohub,2013-03-27 09:52:00,
2013-03-27 05:02:00,36.0,26.1,30.31,SSE,168,0.0,3.0,67,0.00,,,0.00,meteohub,2013-03-27 10:02:00,
2013-03-27 05:07:00,36.0,25.7,30.31,SSE,153,0.0,3.0,66,0.00,,,0.00,meteohub,2013-03-27 10:07:00,
2013-03-27 05:12:00,36.0,25.7,30.31,SSE,153,2.0,3.0,66,0.00,,,0.00,meteohub,2013-03-27 10:12:00,
2013-03-27 05:17:00,36.0,25.7,30.31,South,173,1.0,3.0,66,0.00,,,0.00,meteohub,2013-03-27 10:17:00,
2013-03-27 05:27:00,36.0,26.1,30.31,South,173,0.0,2.0,67,0.00,,,0.00,meteohub,2013-03-27 10:27:00,
2013-03-27 05:32:00,36.0,26.1,30.31,South,173,1.0,2.0,67,0.00,,,0.00,meteohub,2013-03-27 10:32:00,
2013-03-27 05:42:00,35.8,26.2,30.32,South,175,0.0,3.0,68,0.00,,,0.00,meteohub,2013-03-27 10:42:00,
2013-03-27 05:47:00,35.6,26.1,30.32,South,175,0.0,3.0,68,0.00,,,0.00,meteohub,2013-03-27 10:47:00,
2013-03-27 05:52:00,35.4,25.9,30.32,South,175,1.0,3.0,68,0.00,,,0.00,meteohub,2013-03-27 10:52:00,
2013-03-27 05:57:00,35.4,25.9,30.32,South,186,0.0,3.0,68,0.00,,,0.00,meteohub,2013-03-27 10:57:00,
2013-03-27 06:07:00,35.4,25.9,30.32,SE,142,0.0,3.0,68,0.00,,,0.00,meteohub,2013-03-27 11:07:00,
2013-03-27 06:12:00,35.4,26.2,30.32,SSE,163,3.0,3.0,69,0.00,,,0.00,meteohub,2013-03-27 11:12:00,
2013-03-27 06:17:00,35.4,26.2,30.32,SSW,194,1.0,3.0,69,0.00,,,0.00,meteohub,2013-03-27 11:17:00,
2013-03-27 06:22:00,35.6,26.8,30.33,SSE,167,2.0,4.0,70,0.00,,,0.00,meteohub,2013-03-27 11:22:00,
2013-03-27 06:27:00,35.6,26.8,30.32,SSE,160,1.0,4.0,70,0.00,,,0.00,meteohub,2013-03-27 11:27:00,
2013-03-27 06:37:00,35.6,26.8,30.32,SSE,166,1.0,3.0,70,0.00,,,0.00,meteohub,2013-03-27 11:37:00,
2013-03-27 06:42:00,35.6,26.8,30.32,SSE,161,3.0,3.0,70,0.00,,,0.00,meteohub,2013-03-27 11:42:00,
2013-03-27 06:47:00,35.6,26.8,30.33,SSE,152,1.0,4.0,70,0.00,,,0.00,meteohub,2013-03-27 11:47:00,
2013-03-27 06:52:00,35.8,26.6,30.33,SE,134,2.0,4.0,69,0.00,,,0.00,meteohub,2013-03-27 11:52:00,
2013-03-27 07:02:00,35.8,26.6,30.33,SE,145,1.0,4.0,69,0.00,,,0.00,meteohub,2013-03-27 12:02:00,
2013-03-27 07:07:00,35.8,26.6,30.33,SSE,166,1.0,4.0,69,0.00,,,0.00,meteohub,2013-03-27 12:07:00,
2013-03-27 07:17:00,36.0,26.8,30.33,South,188,2.0,4.0,69,0.00,,,0.00,meteohub,2013-03-27 12:17:00,
2013-03-27 07:22:00,36.0,26.8,30.34,South,171,2.0,4.0,69,0.00,,,0.00,meteohub,2013-03-27 12:22:00,
2013-03-27 07:32:00,36.3,27.5,30.35,SW,219,3.0,4.0,70,0.00,,,0.00,meteohub,2013-03-27 12:32:00,
2013-03-27 07:37:00,36.5,27.7,30.35,South,184,2.0,4.0,70,0.00,,,0.00,meteohub,2013-03-27 12:37:00,
2013-03-27 07:42:00,36.9,28.4,30.35,SSE,162,1.0,4.0,71,0.00,,,0.00,meteohub,2013-03-27 12:42:00,
2013-03-27 07:52:00,37.4,28.6,30.35,South,184,2.0,6.0,70,0.00,,,0.00,meteohub,2013-03-27 12:52:00,
2013-03-27 07:57:00,37.8,28.9,30.36,SSE,155,1.0,6.0,70,0.00,,,0.00,meteohub,2013-03-27 12:57:00,
2013-03-27 08:02:00,37.9,28.8,30.35,SE,146,4.0,5.0,69,0.00,,,0.00,meteohub,2013-03-27 13:02:00,
2013-03-27 08:07:00,38.5,28.8,30.36,South,171,1.0,5.0,68,0.00,,,0.00,meteohub,2013-03-27 13:07:00,
2013-03-27 08:12:00,38.8,29.1,30.36,South,182,1.0,5.0,68,0.00,,,0.00,meteohub,2013-03-27 13:12:00,
2013-03-27 08:17:00,39.4,29.3,30.36,SSE,155,4.0,5.0,67,0.00,,,0.00,meteohub,2013-03-27 13:17:00,
2013-03-27 08:22:00,40.3,29.8,30.37,SE,139,1.0,5.0,66,0.00,,,0.00,meteohub,2013-03-27 13:22:00,
2013-03-27 08:30:00,41.2,30.0,30.37,South,175,2.0,5.0,64,0.00,,,0.00,meteohub,2013-03-27 13:30:00,
2013-03-27 08:37:00,43.5,30.6,30.37,South,181,3.0,6.0,60,0.00,,,0.00,meteohub,2013-03-27 13:37:00,
2013-03-27 08:47:00,45.7,31.3,30.37,South,171,2.0,8.0,57,0.00,,,0.00,meteohub,2013-03-27 13:47:00,
2013-03-27 08:52:00,46.6,30.7,30.37,SSW,192,2.0,8.0,54,0.00,,,0.00,meteohub,2013-03-27 13:52:00,
2013-03-27 08:57:00,47.5,30.7,30.37,SSE,155,1.0,8.0,52,0.00,,,0.00,meteohub,2013-03-27 13:57:00,
2013-03-27 09:07:00,48.7,30.4,30.38,WSW,258,4.0,11.0,49,0.00,,,0.00,meteohub,2013-03-27 14:07:00,
2013-03-27 09:12:00,49.5,30.6,30.37,SSW,206,3.0,11.0,48,0.00,,,0.00,meteohub,2013-03-27 14:12:00,
2013-03-27 09:17:00,50.0,30.6,30.38,East,85,3.0,11.0,47,0.00,,,0.00,meteohub,2013-03-27 14:17:00,
2013-03-27 09:22:00,50.5,30.6,30.38,South,178,4.0,9.0,46,0.00,,,0.00,meteohub,2013-03-27 14:22:00,
2013-03-27 09:27:00,51.4,30.7,30.38,SSE,160,7.0,11.0,45,0.00,,,0.00,meteohub,2013-03-27 14:27:00,
2013-03-27 09:32:00,52.0,30.2,30.38,ESE,109,2.0,11.0,43,0.00,,,0.00,meteohub,2013-03-27 14:32:00,
2013-03-27 09:37:00,52.3,31.1,30.38,South,188,2.0,10.0,44,0.00,,,0.00,meteohub,2013-03-27 14:37:00,
2013-03-27 09:42:00,53.1,31.1,30.38,SE,137,3.0,10.0,43,0.00,,,0.00,meteohub,2013-03-27 14:42:00,
2013-03-27 09:52:00,54.1,31.5,30.38,SW,236,4.0,11.0,42,0.00,,,0.00,meteohub,2013-03-27 14:52:00,
2013-03-27 10:02:00,54.5,31.8,30.37,South,188,4.0,13.0,42,0.00,,,0.00,meteohub,2013-03-27 15:02:00,
2013-03-27 10:12:00,55.4,31.5,30.37,ESE,114,2.0,10.0,40,0.00,,,0.00,meteohub,2013-03-27 15:12:00,
2013-03-27 10:17:00,55.8,31.1,30.37,SE,127,3.0,10.0,39,0.00,,,0.00,meteohub,2013-03-27 15:17:00,
2013-03-27 10:27:00,56.1,30.2,30.37,SW,228,5.0,14.0,37,0.00,,,0.00,meteohub,2013-03-27 15:27:00,
2013-03-27 10:32:00,56.8,30.9,30.37,South,188,5.0,14.0,37,0.00,,,0.00,meteohub,2013-03-27 15:32:00,
2013-03-27 10:42:00,57.6,30.7,30.37,SE,131,5.0,12.0,36,0.00,,,0.00,meteohub,2013-03-27 15:42:00,
2013-03-27 10:52:00,57.9,30.4,30.37,South,190,3.0,14.0,35,0.00,,,0.00,meteohub,2013-03-27 15:52:00,
2013-03-27 11:02:00,59.5,31.1,30.37,East,82,9.0,11.0,34,0.00,,,0.00,meteohub,2013-03-27 16:02:00,
2013-03-27 11:12:00,60.6,32.9,30.36,SSW,196,3.0,11.0,35,0.00,,,0.00,meteohub,2013-03-27 16:12:00,
2013-03-27 11:22:00,61.2,31.1,30.36,SSW,205,7.0,10.0,32,0.00,,,0.00,meteohub,2013-03-27 16:22:00,
2013-03-27 11:32:00,61.3,30.4,30.36,South,173,3.0,13.0,31,0.00,,,0.00,meteohub,2013-03-27 16:32:00,
2013-03-27 11:37:00,61.5,30.6,30.35,WSW,253,3.0,14.0,31,0.00,,,0.00,meteohub,2013-03-27 16:37:00,
2013-03-27 11:42:00,62.1,31.8,30.35,SE,135,3.0,14.0,32,0.00,,,0.00,meteohub,2013-03-27 16:42:00,
2013-03-27 11:47:00,62.6,31.5,30.35,SSW,196,6.0,13.0,31,0.00,,,0.00,meteohub,2013-03-27 16:47:00,
2013-03-27 11:52:00,63.1,31.3,30.35,SSW,212,3.0,13.0,30,0.00,,,0.00,meteohub,2013-03-27 16:52:00,
2013-03-27 12:02:00,63.1,32.0,30.34,SSE,167,4.0,9.0,31,0.00,,,0.00,meteohub,2013-03-27 17:02:00,
2013-03-27 12:12:00,63.5,30.7,30.34,SSE,168,4.0,13.0,29,0.00,,,0.00,meteohub,2013-03-27 17:12:00,
2013-03-27 12:17:00,63.3,31.3,30.33,ESE,115,4.0,13.0,30,0.00,,,0.00,meteohub,2013-03-27 17:17:00,
2013-03-27 12:22:00,63.1,30.4,30.33,ESE,106,1.0,12.0,29,0.00,,,0.00,meteohub,2013-03-27 17:22:00,
2013-03-27 12:27:00,63.1,30.4,30.33,SSE,163,5.0,12.0,29,0.00,,,0.00,meteohub,2013-03-27 17:27:00,
2013-03-27 12:32:00,63.0,31.1,30.33,NE,55,2.0,12.0,30,0.00,,,0.00,meteohub,2013-03-27 17:32:00,
2013-03-27 12:37:00,63.3,32.2,30.33,SW,214,3.0,12.0,31,0.00,,,0.00,meteohub,2013-03-27 17:37:00,
2013-03-27 12:42:00,64.0,28.4,30.33,SE,133,5.0,12.0,26,0.00,,,0.00,meteohub,2013-03-27 17:42:00,
2013-03-27 12:52:00,64.0,31.1,30.33,East,92,3.0,15.0,29,0.00,,,0.00,meteohub,2013-03-27 17:52:00,
2013-03-27 12:57:00,64.6,30.7,30.32,South,184,3.0,13.0,28,0.00,,,0.00,meteohub,2013-03-27 17:57:00,
2013-03-27 13:02:00,65.5,30.6,30.32,East,90,3.0,11.0,27,0.00,,,0.00,meteohub,2013-03-27 18:02:00,
2013-03-27 13:12:00,66.0,31.1,30.32,East,98,3.0,11.0,27,0.00,,,0.00,meteohub,2013-03-27 18:12:00,
2013-03-27 13:17:00,66.6,29.7,30.31,SSE,150,4.0,11.0,25,0.00,,,0.00,meteohub,2013-03-27 18:17:00,
2013-03-27 13:22:00,66.4,28.4,30.31,SSE,152,4.0,11.0,24,0.00,,,0.00,meteohub,2013-03-27 18:22:00,
2013-03-27 13:32:00,66.2,30.4,30.30,SE,138,5.0,10.0,26,0.00,,,0.00,meteohub,2013-03-27 18:32:00,
2013-03-27 13:42:00,65.7,28.9,30.30,East,86,6.0,13.0,25,0.00,,,0.00,meteohub,2013-03-27 18:42:00,
2013-03-27 13:52:00,67.3,31.3,30.30,SSW,201,6.0,11.0,26,0.00,,,0.00,meteohub,2013-03-27 18:52:00,
2013-03-27 13:57:00,68.2,30.0,30.29,South,173,3.0,11.0,24,0.00,,,0.00,meteohub,2013-03-27 18:57:00,
2013-03-27 14:02:00,68.5,30.4,30.29,SSE,164,7.0,11.0,24,0.00,,,0.00,meteohub,2013-03-27 19:02:00,
2013-03-27 14:07:00,68.4,29.1,30.29,SSE,168,3.0,13.0,23,0.00,,,0.00,meteohub,2013-03-27 19:07:00,
2013-03-27 14:17:00,67.8,30.7,30.28,SSE,163,3.0,13.0,25,0.00,,,0.00,meteohub,2013-03-27 19:17:00,
2013-03-27 14:22:00,68.2,27.9,30.28,ENE,63,4.0,13.0,22,0.00,,,0.00,meteohub,2013-03-27 19:22:00,
2013-03-27 14:32:00,67.8,27.5,30.27,SSE,148,5.0,15.0,22,0.00,,,0.00,meteohub,2013-03-27 19:32:00,
2013-03-27 14:37:00,68.4,29.1,30.26,South,188,4.0,15.0,23,0.00,,,0.00,meteohub,2013-03-27 19:37:00,
2013-03-27 14:47:00,69.4,28.9,30.25,SSE,152,2.0,12.0,22,0.00,,,0.00,meteohub,2013-03-27 19:47:00,
2013-03-27 14:52:00,69.8,28.0,30.25,SE,138,2.0,11.0,21,0.00,,,0.00,meteohub,2013-03-27 19:52:00,
2013-03-27 14:57:00,70.2,28.4,30.25,SE,130,8.0,11.0,21,0.00,,,0.00,meteohub,2013-03-27 19:57:00,
2013-03-27 15:02:00,70.3,28.6,30.24,SW,216,3.0,11.0,21,0.00,,,0.00,meteohub,2013-03-27 20:02:00,
2013-03-27 15:07:00,70.5,27.5,30.24,SSE,153,4.0,11.0,20,0.00,,,0.00,meteohub,2013-03-27 20:07:00,
2013-03-27 15:12:00,70.0,27.1,30.24,SE,143,3.0,12.0,20,0.00,,,0.00,meteohub,2013-03-27 20:12:00,
2013-03-27 15:17:00,70.2,27.1,30.24,SE,146,8.0,12.0,20,0.00,,,0.00,meteohub,2013-03-27 20:17:00,
2013-03-27 15:27:00,70.2,28.4,30.23,SW,217,2.0,11.0,21,0.00,,,0.00,meteohub,2013-03-27 20:27:00,
2013-03-27 15:37:00,70.9,28.9,30.22,SE,146,5.0,9.0,21,0.00,,,0.00,meteohub,2013-03-27 20:37:00,
2013-03-27 15:42:00,71.2,29.3,30.21,ESE,109,3.0,10.0,21,0.00,,,0.00,meteohub,2013-03-27 20:42:00,
2013-03-27 15:47:00,71.2,29.3,30.21,ESE,117,2.0,10.0,21,0.00,,,0.00,meteohub,2013-03-27 20:47:00,
2013-03-27 15:52:00,71.2,28.0,30.21,South,190,7.0,13.0,20,0.00,,,0.00,meteohub,2013-03-27 20:52:00,
2013-03-27 15:57:00,71.1,29.1,30.21,SSE,165,7.0,13.0,21,0.00,,,0.00,meteohub,2013-03-27 20:57:00,
2013-03-27 16:02:00,71.2,29.3,30.20,South,169,6.0,12.0,21,0.00,,,0.00,meteohub,2013-03-27 21:02:00,
2013-03-27 16:07:00,71.8,28.6,30.20,ESE,103,7.0,12.0,20,0.00,,,0.00,meteohub,2013-03-27 21:07:00,
2013-03-27 16:17:00,71.6,28.4,30.19,SSE,149,6.0,10.0,20,0.00,,,0.00,meteohub,2013-03-27 21:17:00,
2013-03-27 16:22:00,71.6,28.4,30.19,SE,142,2.0,10.0,20,0.00,,,0.00,meteohub,2013-03-27 21:22:00,
2013-03-27 16:27:00,71.8,30.9,30.19,SSE,153,4.0,9.0,22,0.00,,,0.00,meteohub,2013-03-27 21:27:00,
2013-03-27 16:37:00,72.1,28.8,30.18,SSE,161,7.0,9.0,20,0.00,,,0.00,meteohub,2013-03-27 21:37:00,
2013-03-27 16:42:00,72.0,28.8,30.18,SSE,159,5.0,12.0,20,0.00,,,0.00,meteohub,2013-03-27 21:42:00,
2013-03-27 16:47:00,72.0,27.5,30.18,SSW,209,5.0,12.0,19,0.00,,,0.00,meteohub,2013-03-27 21:47:00,
2013-03-27 16:57:00,72.0,28.8,30.17,East,85,7.0,11.0,20,0.00,,,0.00,meteohub,2013-03-27 21:57:00,
2013-03-27 17:07:00,71.8,29.7,30.17,SSW,195,4.0,10.0,21,0.00,,,0.00,meteohub,2013-03-27 22:07:00,
2013-03-27 17:12:00,71.2,28.0,30.17,SSE,150,3.0,10.0,20,0.00,,,0.00,meteohub,2013-03-27 22:12:00,
2013-03-27 17:17:00,70.9,28.9,30.17,ESE,120,4.0,10.0,21,0.00,,,0.00,meteohub,2013-03-27 22:17:00,
2013-03-27 17:22:00,70.3,28.6,30.16,SSE,150,1.0,9.0,21,0.00,,,0.00,meteohub,2013-03-27 22:22:00,
2013-03-27 17:27:00,70.3,30.7,30.16,SSW,198,4.0,11.0,23,0.00,,,0.00,meteohub,2013-03-27 22:27:00,
2013-03-27 17:32:00,70.3,29.7,30.16,SE,128,2.0,11.0,22,0.00,,,0.00,meteohub,2013-03-27 22:32:00,
2013-03-27 17:37:00,70.2,28.4,30.16,ESE,119,4.0,8.0,21,0.00,,,0.00,meteohub,2013-03-27 22:37:00,
2013-03-27 17:42:00,69.6,30.2,30.16,South,180,3.0,12.0,23,0.00,,,0.00,meteohub,2013-03-27 22:42:00,
2013-03-27 17:47:00,69.4,31.1,30.16,SSW,198,5.0,12.0,24,0.00,,,0.00,meteohub,2013-03-27 22:47:00,
2013-03-27 17:52:00,69.1,30.7,30.15,South,183,4.0,11.0,24,0.00,,,0.00,meteohub,2013-03-27 22:52:00,
2013-03-27 17:57:00,68.7,31.5,30.16,South,183,2.0,11.0,25,0.00,,,0.00,meteohub,2013-03-27 22:57:00,
2013-03-27 18:02:00,68.5,32.4,30.16,South,182,4.0,11.0,26,0.00,,,0.00,meteohub,2013-03-27 23:02:00,
2013-03-27 18:07:00,68.4,32.2,30.16,SSE,160,3.0,11.0,26,0.00,,,0.00,meteohub,2013-03-27 23:07:00,
2013-03-27 18:12:00,68.2,32.9,30.16,SSE,163,7.0,11.0,27,0.00,,,0.00,meteohub,2013-03-27 23:12:00,
2013-03-27 18:22:00,67.8,31.6,30.15,SE,142,1.0,13.0,26,0.00,,,0.00,meteohub,2013-03-27 23:22:00,
2013-03-27 18:27:00,67.6,32.5,30.15,South,179,8.0,13.0,27,0.00,,,0.00,meteohub,2013-03-27 23:27:00,
2013-03-27 18:32:00,67.5,32.4,30.15,SSE,152,3.0,10.0,27,0.00,,,0.00,meteohub,2013-03-27 23:32:00,
2013-03-27 18:37:00,67.3,33.1,30.15,SSE,167,8.0,11.0,28,0.00,,,0.00,meteohub,2013-03-27 23:37:00,
2013-03-27 18:42:00,66.9,32.7,30.15,South,175,9.0,11.0,28,0.00,,,0.00,meteohub,2013-03-27 23:42:00,
2013-03-27 18:47:00,66.7,32.5,30.15,SSW,194,5.0,11.0,28,0.00,,,0.00,meteohub,2013-03-27 23:47:00,
2013-03-27 18:52:00,66.6,33.3,30.15,SSW,195,7.0,10.0,29,0.00,,,0.00,meteohub,2013-03-27 23:52:00,
2013-03-27 19:02:00,66.0,33.6,30.15,SSW,198,3.0,8.0,30,0.00,,,0.00,meteohub,2013-03-28 00:02:00,
2013-03-27 19:07:00,65.8,33.6,30.15,South,182,2.0,8.0,30,0.00,,,0.00,meteohub,2013-03-28 00:07:00,
2013-03-27 19:12:00,65.5,33.3,30.15,SSW,192,2.0,8.0,30,0.00,,,0.00,meteohub,2013-03-28 00:12:00,
2013-03-27 19:17:00,65.1,33.8,30.15,South,183,2.0,10.0,31,0.00,,,0.00,meteohub,2013-03-28 00:17:00,
2013-03-27 19:22:00,64.8,34.2,30.15,South,182,4.0,10.0,32,0.00,,,0.00,meteohub,2013-03-28 00:22:00,
2013-03-27 19:32:00,64.0,34.3,30.15,SSE,153,4.0,7.0,33,0.00,,,0.00,meteohub,2013-03-28 00:32:00,
2013-03-27 19:42:00,63.1,34.3,30.15,SW,219,2.0,7.0,34,0.00,,,0.00,meteohub,2013-03-28 00:42:00,
2013-03-27 19:47:00,63.0,34.9,30.15,South,186,1.0,5.0,35,0.00,,,0.00,meteohub,2013-03-28 00:47:00,
2013-03-27 19:52:00,62.4,35.1,30.15,South,182,2.0,5.0,36,0.00,,,0.00,meteohub,2013-03-28 00:52:00,
2013-03-27 19:57:00,62.2,34.9,30.15,SE,140,2.0,5.0,36,0.00,,,0.00,meteohub,2013-03-28 00:57:00,
2013-03-27 20:02:00,61.9,35.2,30.15,SSE,164,1.0,5.0,37,0.00,,,0.00,meteohub,2013-03-28 01:02:00,
2013-03-27 20:12:00,61.2,35.4,30.15,South,186,1.0,4.0,38,0.00,,,0.00,meteohub,2013-03-28 01:12:00,
2013-03-27 20:17:00,60.8,35.1,30.16,South,182,1.0,4.0,38,0.00,,,0.00,meteohub,2013-03-28 01:17:00,
2013-03-27 20:22:00,60.4,35.4,30.16,SSE,156,1.0,4.0,39,0.00,,,0.00,meteohub,2013-03-28 01:22:00,
2013-03-27 20:32:00,59.7,35.4,30.16,SSE,156,0.0,3.0,40,0.00,,,0.00,meteohub,2013-03-28 01:32:00,
2013-03-27 20:37:00,59.4,35.6,30.16,SSE,156,0.0,3.0,41,0.00,,,0.00,meteohub,2013-03-28 01:37:00,
2013-03-27 20:42:00,59.2,35.4,30.16,SSE,156,1.0,3.0,41,0.00,,,0.00,meteohub,2013-03-28 01:42:00,
2013-03-27 20:52:00,58.6,35.6,30.16,SSE,153,0.0,3.0,42,0.00,,,0.00,meteohub,2013-03-28 01:52:00,
2013-03-27 21:02:00,57.9,35.6,30.17,SSE,153,2.0,3.0,43,0.00,,,0.00,meteohub,2013-03-28 02:02:00,
2013-03-27 21:12:00,57.6,35.8,30.17,SSE,151,2.0,3.0,44,0.00,,,0.00,meteohub,2013-03-28 02:12:00,
2013-03-27 21:17:00,57.2,36.0,30.17,SSE,151,0.0,3.0,45,0.00,,,0.00,meteohub,2013-03-28 02:17:00,
2013-03-27 21:22:00,56.8,35.8,30.17,ESE,119,0.0,2.0,45,0.00,,,0.00,meteohub,2013-03-28 02:22:00,
2013-03-27 21:27:00,56.7,36.1,30.17,SSE,153,0.0,3.0,46,0.00,,,0.00,meteohub,2013-03-28 02:27:00,
2013-03-27 21:32:00,56.5,36.0,30.17,SSE,153,1.0,3.0,46,0.00,,,0.00,meteohub,2013-03-28 02:32:00,
2013-03-27 21:37:00,56.5,36.0,30.17,South,175,2.0,3.0,46,0.00,,,0.00,meteohub,2013-03-28 02:37:00,
2013-03-27 21:42:00,56.3,35.8,30.17,SSE,163,2.0,4.0,46,0.00,,,0.00,meteohub,2013-03-28 02:42:00,
2013-03-27 21:47:00,56.3,35.8,30.18,SSE,154,2.0,4.0,46,0.00,,,0.00,meteohub,2013-03-28 02:47:00,
2013-03-27 21:52:00,56.1,35.6,30.18,SSE,153,1.0,3.0,46,0.00,,,0.00,meteohub,2013-03-28 02:52:00,
2013-03-27 21:57:00,56.1,35.6,30.18,SSE,153,1.0,3.0,46,0.00,,,0.00,meteohub,2013-03-28 02:57:00,
2013-03-27 22:02:00,55.9,36.0,30.18,SSE,153,1.0,3.0,47,0.00,,,0.00,meteohub,2013-03-28 03:02:00,
2013-03-27 22:07:00,55.9,36.0,30.19,SSE,152,0.0,3.0,47,0.00,,,0.00,meteohub,2013-03-28 03:07:00,
2013-03-27 22:17:00,55.9,36.5,30.19,SSE,152,2.0,3.0,48,0.00,,,0.00,meteohub,2013-03-28 03:17:00,
2013-03-27 22:22:00,55.9,36.5,30.19,SSE,152,0.0,3.0,48,0.00,,,0.00,meteohub,2013-03-28 03:22:00,
2013-03-27 22:27:00,56.1,36.7,30.19,SSE,152,1.0,2.0,48,0.00,,,0.00,meteohub,2013-03-28 03:27:00,
2013-03-27 22:37:00,56.5,37.0,30.19,SSE,152,0.0,2.0,48,0.00,,,0.00,meteohub,2013-03-28 03:37:00,
2013-03-27 22:42:00,56.5,37.0,30.19,SSE,157,1.0,2.0,48,0.00,,,0.00,meteohub,2013-03-28 03:42:00,
2013-03-27 22:52:00,56.7,37.8,30.20,SE,127,1.0,3.0,49,0.00,,,0.00,meteohub,2013-03-28 03:52:00,
2013-03-27 22:57:00,56.7,37.8,30.20,SE,142,1.0,3.0,49,0.00,,,0.00,meteohub,2013-03-28 03:57:00,
2013-03-27 23:02:00,56.7,37.8,30.20,SSE,167,2.0,3.0,49,0.00,,,0.00,meteohub,2013-03-28 04:02:00,
2013-03-27 23:07:00,56.7,37.8,30.20,SSE,159,1.0,3.0,49,0.00,,,0.00,meteohub,2013-03-28 04:07:00,
2013-03-27 23:12:00,56.7,37.8,30.20,SSE,157,1.0,4.0,49,0.00,,,0.00,meteohub,2013-03-28 04:12:00,
2013-03-27 23:17:00,56.7,37.8,30.20,SSE,160,2.0,4.0,49,0.00,,,0.00,meteohub,2013-03-28 04:17:00,
2013-03-27 23:22:00,56.5,38.1,30.20,South,180,0.0,4.0,50,0.00,,,0.00,meteohub,2013-03-28 04:22:00,
2013-03-27 23:27:00,56.3,37.9,30.20,SSE,157,1.0,4.0,50,0.00,,,0.00,meteohub,2013-03-28 04:27:00,
2013-03-27 23:32:00,55.9,38.1,30.20,SSE,152,1.0,3.0,51,0.00,,,0.00,meteohub,2013-03-28 04:32:00,
2013-03-27 23:37:00,55.8,37.9,30.19,SSE,163,0.0,3.0,51,0.00,,,0.00,meteohub,2013-03-28 04:37:00,
2013-03-27 23:47:00,55.2,38.3,30.19,South,169,1.0,4.0,53,0.00,,,0.00,meteohub,2013-03-28 04:47:00,
2013-03-27 23:52:00,54.9,39.0,30.19,SE,140,0.0,4.0,55,0.00,,,0.00,meteohub,2013-03-28 04:52:00,
2013-03-27 23:57:00,54.7,38.8,30.19,South,169,1.0,4.0,55,0.00,,,0.00,meteohub,2013-03-28 04:57:00,